When you browse on this site, cookies collect data to enhance your experience and personalize the content and advertising you see.
Visit our Privacy Policy to learn more. By continuing to use the site, you agree to this use of cookies and data.
  • In France
  • List of Countries
  • For 7 days
  • Water Temperature
  • Satellite Maps
  • Weather Map
  • Weather Widgets
  • user-avatar
    Login

    Hourly Weather Yeghegnadzor

    Today, 16 July, Tuesday

    Time Temperature Precipitation Wind Pressure Humidity
    00:00 +21°C° 0 mm 2 mps 648 mmHg 42%
    01:00 +22°C° 0 mm 1 mps 648 mmHg 43%
    02:00 +21°C° 0 mm 1 mps 648 mmHg 44%
    03:00 +20°C° 0 mm 1 mps 648 mmHg 45%
    04:00 +21°C° 0 mm 1 mps 649 mmHg 46%
    05:00 +22°C° 0 mm 1 mps 649 mmHg 47%
    06:00 +22°C° 0 mm 1 mps 649 mmHg 48%
    07:00 +24°C° 0 mm 1 mps 650 mmHg 42%
    08:00 +26°C° 0 mm 1 mps 650 mmHg 36%
    09:00 +28°C° 0 mm 1 mps 650 mmHg 31%
    10:00 +29°C° 0 mm 2 mps 650 mmHg 29%
    11:00 +30°C° 0 mm 2 mps 650 mmHg 27%
    12:00 +31°C° 0 mm 3 mps 650 mmHg 25%
    13:00 +33°C° 0 mm 3 mps 650 mmHg 24%
    14:00 +33°C° 0 mm 3 mps 650 mmHg 23%
    15:00 +33°C° 0 mm 3 mps 650 mmHg 22%
    16:00 +32°C° 0 mm 2 mps 649 mmHg 25%
    17:00 +31°C° 0 mm 2 mps 649 mmHg 27%
    18:00 +31°C° 0 mm 1 mps 649 mmHg 30%
    19:00 +28°C° 0 mm 2 mps 649 mmHg 40%
    20:00 +26°C° 0 mm 2 mps 649 mmHg 50%
    21:00 +22°C° 0 mm 3 mps 648 mmHg 60%
    22:00 +21°C° 0 mm 3 mps 648 mmHg 62%
    23:00 +21°C° 0 mm 2 mps 648 mmHg 64%

    Tomorrow, 17 July, Wednesday

    Time Temperature Precipitation Wind Pressure Humidity
    00:00 +20°C° 0 mm 2 mps 648 mmHg 66%
    01:00 +20°C° 0 mm 2 mps 648 mmHg 67%
    02:00 +19°C° 0 mm 2 mps 648 mmHg 68%
    03:00 +19°C° 0 mm 2 mps 648 mmHg 69%
    04:00 +20°C° 0 mm 2 mps 648 mmHg 66%
    05:00 +22°C° 0 mm 1 mps 649 mmHg 64%
    06:00 +22°C° 0 mm 1 mps 649 mmHg 61%
    07:00 +24°C° 0 mm 1 mps 650 mmHg 55%
    08:00 +26°C° 0 mm 1 mps 650 mmHg 49%
    09:00 +28°C° 0 mm 1 mps 651 mmHg 44%
    10:00 +29°C° 0 mm 2 mps 651 mmHg 40%
    11:00 +30°C° 0 mm 3 mps 651 mmHg 36%
    12:00 +33°C° 0 mm 3 mps 651 mmHg 33%
    13:00 +33°C° 0 mm 4 mps 650 mmHg 30%
    14:00 +33°C° 0 mm 4 mps 650 mmHg 28%
    15:00 +34°C° 0 mm 4 mps 650 mmHg 25%
    16:00 +33°C° 0 mm 3 mps 650 mmHg 28%
    17:00 +32°C° 0 mm 2 mps 650 mmHg 32%
    18:00 +31°C° 0 mm 1 mps 650 mmHg 36%
    19:00 +29°C° 0 mm 2 mps 649 mmHg 40%
    20:00 +27°C° 0 mm 2 mps 649 mmHg 47%
    21:00 +24°C° 0 mm 3 mps 649 mmHg 55%
    22:00 +24°C° 0 mm 2 mps 649 mmHg 55%
    23:00 +23°C° 0 mm 2 mps 649 mmHg 55%

    Day after tomorrow, 18 July, Thursday

    Time Temperature Precipitation Wind Pressure Humidity
    00:00 +21°C° 0 mm 2 mps 649 mmHg 54%
    01:00 +21°C° 0 mm 2 mps 649 mmHg 54%
    02:00 +20°C° 0 mm 2 mps 649 mmHg 54%
    03:00 +21°C° 0 mm 1 mps 648 mmHg 54%
    04:00 +22°C° 0 mm 1 mps 649 mmHg 52%
    05:00 +23°C° 0 mm 1 mps 649 mmHg 51%
    06:00 +24°C° 0 mm 1 mps 650 mmHg 50%
    07:00 +26°C° 0 mm 1 mps 650 mmHg 44%
    08:00 +28°C° 0 mm 1 mps 651 mmHg 38%
    09:00 +30°C° 0 mm 2 mps 651 mmHg 32%
    10:00 +31°C° 0 mm 2 mps 651 mmHg 29%
    11:00 +34°C° 0 mm 3 mps 651 mmHg 26%
    12:00 +35°C° 0 mm 4 mps 651 mmHg 22%
    13:00 +35°C° 0 mm 4 mps 651 mmHg 22%
    14:00 +35°C° 0 mm 4 mps 651 mmHg 22%
    15:00 +36°C° 0 mm 5 mps 651 mmHg 21%
    16:00 +35°C° 0 mm 4 mps 650 mmHg 23%
    17:00 +35°C° 0 mm 3 mps 650 mmHg 24%
    18:00 +35°C° 0 mm 2 mps 650 mmHg 26%
    19:00 +31°C° 0 mm 2 mps 650 mmHg 35%
    20:00 +28°C° 0 mm 2 mps 650 mmHg 45%
    21:00 +25°C° 0 mm 3 mps 650 mmHg 54%
    22:00 +24°C° 0 mm 2 mps 650 mmHg 53%
    23:00 +23°C° 0 mm 2 mps 650 mmHg 53%

    19 July, Friday

    Time Temperature Precipitation Wind Pressure Humidity
    00:00 +23°C° 0 mm 2 mps 650 mmHg 52%
    01:00 +21°C° 0 mm 2 mps 650 mmHg 53%
    02:00 +22°C° 0 mm 1 mps 650 mmHg 54%
    03:00 +21°C° 0 mm 1 mps 650 mmHg 55%
    04:00 +22°C° 0 mm 1 mps 650 mmHg 53%
    05:00 +23°C° 0 mm 1 mps 651 mmHg 52%
    06:00 +24°C° 0 mm 1 mps 651 mmHg 50%
    07:00 +26°C° 0 mm 1 mps 652 mmHg 44%
    08:00 +28°C° 0 mm 1 mps 652 mmHg 39%
    09:00 +30°C° 0 mm 1 mps 653 mmHg 33%
    10:00 +32°C° 0 mm 2 mps 653 mmHg 30%
    11:00 +34°C° 0 mm 2 mps 653 mmHg 28%
    12:00 +35°C° 0 mm 3 mps 653 mmHg 25%
    13:00 +35°C° 0 mm 3 mps 653 mmHg 25%
    14:00 +36°C° 0 mm 4 mps 653 mmHg 24%
    15:00 +36°C° 0 mm 4 mps 653 mmHg 24%
    16:00 +35°C° 0 mm 4 mps 652 mmHg 29%
    17:00 +35°C° 0 mm 3 mps 652 mmHg 33%
    18:00 +34°C° 0 mm 3 mps 652 mmHg 38%
    19:00 +30°C° 0 mm 3 mps 652 mmHg 48%
    20:00 +27°C° 0 mm 3 mps 652 mmHg 59%
    21:00 +25°C° 0 mm 3 mps 652 mmHg 69%
    22:00 +24°C° 0 mm 3 mps 652 mmHg 69%
    23:00 +22°C° 0 mm 3 mps 652 mmHg 69%

    20 July, Saturday

    Time Temperature Precipitation Wind Pressure Humidity
    00:00 +22°C° 0 mm 3 mps 652 mmHg 70%
    01:00 +21°C° 0 mm 2 mps 653 mmHg 69%
    02:00 +21°C° 0 mm 2 mps 653 mmHg 68%
    03:00 +21°C° 0 mm 2 mps 653 mmHg 68%
    04:00 +21°C° 0 mm 2 mps 653 mmHg 65%
    05:00 +23°C° 0 mm 2 mps 653 mmHg 63%
    06:00 +24°C° 0 mm 2 mps 654 mmHg 60%
    07:00 +26°C° 0 mm 2 mps 654 mmHg 54%
    08:00 +28°C° 0 mm 2 mps 655 mmHg 48%
    09:00 +30°C° 0 mm 2 mps 656 mmHg 41%
    10:00 +31°C° 0 mm 2 mps 656 mmHg 38%
    11:00 +34°C° 0 mm 2 mps 656 mmHg 35%
    12:00 +35°C° 0 mm 3 mps 656 mmHg 32%
    13:00 +36°C° 0 mm 3 mps 656 mmHg 30%
    14:00 +36°C° 0 mm 3 mps 656 mmHg 29%
    15:00 +37°C° 0 mm 3 mps 656 mmHg 27%
    16:00 +36°C° 0 mm 3 mps 655 mmHg 32%
    17:00 +35°C° 0 mm 3 mps 655 mmHg 38%
    18:00 +34°C° 0 mm 3 mps 655 mmHg 43%
    19:00 +30°C° 0 mm 3 mps 655 mmHg 50%
    20:00 +28°C° 0 mm 3 mps 655 mmHg 57%
    21:00 +25°C° 0 mm 3 mps 655 mmHg 64%
    22:00 +25°C° 0 mm 3 mps 655 mmHg 62%
    23:00 +24°C° 0 mm 3 mps 655 mmHg 61%

    21 July, Sunday

    Time Temperature Precipitation Wind Pressure Humidity
    00:00 +24°C° 0 mm 2 mps 655 mmHg 60%
    01:00 +23°C° 0 mm 2 mps 655 mmHg 59%
    02:00 +23°C° 0 mm 2 mps 655 mmHg 58%
    03:00 +23°C° 0 mm 2 mps 655 mmHg 57%
    04:00 +23°C° 0 mm 2 mps 655 mmHg 55%
    05:00 +24°C° 0 mm 2 mps 655 mmHg 52%
    06:00 +25°C° 0 mm 1 mps 656 mmHg 50%
    07:00 +27°C° 0 mm 1 mps 656 mmHg 44%
    08:00 +30°C° 0 mm 1 mps 656 mmHg 38%
    09:00 +32°C° 0 mm 1 mps 657 mmHg 32%
    10:00 +35°C° 0 mm 2 mps 657 mmHg 30%
    11:00 +36°C° 0 mm 2 mps 657 mmHg 27%
    12:00 +38°C° 0 mm 3 mps 657 mmHg 24%
    13:00 +38°C° 0 mm 3 mps 657 mmHg 23%
    14:00 +40°C° 0 mm 4 mps 657 mmHg 21%
    15:00 +40°C° 0 mm 4 mps 656 mmHg 20%
    16:00 +38°C° 0 mm 4 mps 656 mmHg 25%
    17:00 +37°C° 0 mm 3 mps 655 mmHg 31%
    18:00 +36°C° 0 mm 3 mps 655 mmHg 36%
    19:00 +34°C° 0 mm 3 mps 655 mmHg 38%
    20:00 +31°C° 0 mm 3 mps 655 mmHg 41%
    21:00 +29°C° 0 mm 3 mps 655 mmHg 43%
    22:00 +28°C° 0 mm 3 mps 655 mmHg 44%
    23:00 +27°C° 0 mm 2 mps 654 mmHg 45%
    Show more